OBJECT E

Satellite information

Favourite Embed

Satellite Type and Status

UNKNOWNIN ORBIT

Key statistics

Satellite OBJECT E at a glance.

Uptime

2218

Days in orbit

Revolutions

≈ 15.3

Per day

Orbit

LEO

Low Earth Orbit

Inclination

45.0

Latest

Satellite identification and parameters

Extended collection of information and parameters for OBJECT E.

Object identification

Identified? True

Debris? False

Object name: OBJECT E

International designator: 2019-032E

Object number (NORAD): 44314

Object ID (CCSDS): 44314

Country: PEOPLES REPUBLIC OF CHINA (PRC)

Current information (Y/N): Y

RCS size: MEDIUM

Orbital parameters

Period: 94.402 minutes

Inclination: 44.9962 deg

SMA: 6867.735 km

Apoapsis: 498.399 km

Periapsis: 480.801 km

RAAN: 115.3444 deg

Eccentricy: 0.0012812

Argument of periapsis: 96.4818 deg

Mean anomaly: 263.7523 deg

Mean motion: 15.25395414 rev/day

Mean motion (dot): 0.00007483 rev/day2

B* drag term: 0.00030145 1/REarth

Two-line elements (TLE)

Creation date: June 30, 2025, 3:44 a.m.

Reference frame: TEME

Reference center: EARTH

Epoch: June 29, 2025, 9:24 p.m. UTC

TLE line 0: 0 OBJECT E

TLE line 1: 1 44314U 19032E 25180.89184572 .00007483 00000-0 30145-3 0 9999

TLE line 2: 2 44314 44.9962 115.3444 0012812 96.4818 263.7523 15.25395414334056

Live tracking on map

Real-time ground track for satellite OBJECT E.

In-orbit conjunctions

There are no conjunctions computed for OBJECT E, at the moment. Check back to stay up to date, as we update our databases every day.

Go to all conjunctions

Associated space launch

The first sea launch of Long March 11 rocket. It carries 7 satellites, which include a new high-resolution Earth observation satellite Jilin-1 and several test satellites, verifying such technologies as sea surface wind measuring and satellite interlink communication.

OBJECT E was lifted into orbit during the mission ‘Long March 11 | Jilin-1 & others’, on board a Long March 11 space rocket.

The launch took place on June 5, 2019, 4:06 a.m. from Tai Rui mobile launch platform.

For more information about the launch, click the button.

Launch to space Long March 11 | Jilin-1 & others
Long March 11 | Jilin-1 & others

Agency: N/A

Status: Launch Successful

Launch date: June 5, 2019, 4:06 a.m. UTC

Rocket: Long March 11

Launch pad: Tai Rui mobile launch platform

Location: Sea Launch

...

Latest news about this satellite

There are no fresh news available about this satellite. Check back as we update our databases every day.


Newsletter sign-up

Weekly statistics, charts and insights to help you stay on top of the space industry.